Simultaneous Nadir Overpasses (SNOs) Predictions

Prediction of SNOs between TERRA and METOP-C Satellite Orbit:

Table of predicted SNOs for the next 14.0 days since TLE Epoch: 10/10/2020
Index Date (TERRA) Time (TERRA) Lat,Lon (TERRA) SZA (TERRA ) Date (METOP-C) Time (METOP-C) Lat,Lon (METOP-C) SZA (METOP-C ) Distance(km) Time Diff (sec)
1 10/10/2020 19:51:48 81.26, -71.51 91.34 10/10/2020 19:51:14 81.26, -71.59 91.31 1.43 34
2 10/10/2020 20:41:14 -81.28, 96.43 88.61 10/10/2020 20:41:54 -81.28, 96.42 88.59 0.16 40
3 10/13/2020 15:26:01 81.28, -4.77 92.45 10/13/2020 15:25:37 81.27, -4.88 92.42 2.18 24
4 10/13/2020 16:15:28 -81.27, 162.83 87.55 10/13/2020 16:16:18 -81.27, 162.78 87.53 0.86 50
5 10/16/2020 11:00:16 81.27, 61.58 93.49 10/16/2020 11:00:02 81.27, 61.44 93.46 2.38 14
6 10/16/2020 11:49:43 -81.27,-130.80 86.51 10/16/2020 11:50:43 -81.27,-130.87 86.49 1.27 60
7 10/19/2020 06:34:31 81.27, 127.90 94.50 10/19/2020 06:34:27 81.27, 127.77 94.48 2.14 4
8 10/19/2020 07:23:57 -81.29, -64.07 85.43 10/19/2020 07:25:07 -81.28, -64.13 85.41 1.33 70
9 10/22/2020 01:19:19 -81.26, 26.57 84.53 10/22/2020 01:18:12 -81.26, 26.53 84.56 0.74 67



Historial Predications of SNOs between TERRA and METOP-C
